| time (UTC) | temp F | wind direction | speed MPH | gust MPH | rain 1hr in | rain 24hr in | rain mn in | humidity % | barometer mb |
| 20260510192021 | 78 | 213 | 2.0 | 13.0 | 0.00 | 0.00 | 0.00 | 14 | 1020.7 |
| 20260510191420 | 78 | 101 | 0.0 | 9.0 | 0.00 | 0.00 | 0.00 | 17 | 1020.6 |
| 20260510190820 | 79 | 178 | 2.0 | 8.0 | 0.00 | 0.00 | 0.00 | 15 | 1020.6 |
| 20260510190220 | 79 | 174 | 0.0 | 3.0 | 0.00 | 0.00 | 0.00 | 16 | 1020.8 |
| 20260510185620 | 77 | 139 | 0.0 | 4.0 | 0.00 | 0.00 | 0.00 | 20 | 1020.9 |
| 20260510185032 | 76 | 214 | 2.0 | 8.0 | 0.00 | 0.00 | 0.00 | 16 | 1020.9 |
| 20260510184420 | 77 | 136 | 1.0 | 4.0 | 0.00 | 0.00 | 0.00 | 23 | 1021.0 |
| 20260510183820 | 77 | 159 | 0.0 | 4.0 | 0.00 | 0.00 | 0.00 | 23 | 1021.0 |
| 20260510183220 | 76 | 169 | 0.0 | 7.0 | 0.00 | 0.00 | 0.00 | 22 | 1021.3 |
| 20260510182620 | 76 | 117 | 2.0 | 6.0 | 0.00 | 0.00 | 0.00 | 21 | 1021.3 |
| 20260510182032 | 77 | 52 | 0.0 | 1.0 | 0.00 | 0.00 | 0.00 | 28 | 1021.4 |
| 20260510181420 | 77 | 114 | 0.0 | 6.0 | 0.00 | 0.00 | 0.00 | 27 | 1021.4 |
| 20260510180820 | 77 | 213 | 0.0 | 9.0 | 0.00 | 0.00 | 0.00 | 26 | 1021.3 |
| 20260510180219 | 77 | 343 | 0.0 | 12.0 | 0.00 | 0.00 | 0.00 | 27 | 1021.3 |
| 20260510175620 | 78 | 96 | 3.0 | 6.0 | 0.00 | 0.00 | 0.00 | 27 | 1021.3 |
| 20260510175045 | 77 | 9 | 0.0 | 4.0 | 0.00 | 0.00 | 0.00 | 28 | 1021.4 |
| 20260510174420 | 76 | 313 | 0.0 | 4.0 | 0.00 | 0.00 | 0.00 | 27 | 1021.6 |
| 20260510173832 | 76 | 218 | 0.0 | 7.0 | 0.00 | 0.00 | 0.00 | 29 | 1021.6 |
| 20260510173220 | 78 | 175 | 1.0 | 6.0 | 0.00 | 0.00 | 0.00 | 28 | 1021.6 |
| 20260510172620 | 77 | 123 | 0.0 | 7.0 | 0.00 | 0.00 | 0.00 | 28 | 1021.6 |
| 20260510172020 | 77 | 151 | 0.0 | 7.0 | 0.00 | 0.00 | 0.00 | 30 | 1021.7 |
| 20260510171420 | 76 | 269 | 0.0 | 8.0 | 0.00 | 0.00 | 0.00 | 32 | 1021.9 |
| 20260510170820 | 77 | 109 | 3.0 | 7.0 | 0.00 | 0.00 | 0.00 | 29 | 1021.9 |
| 20260510170219 | 76 | 82 | 0.0 | 10.0 | 0.00 | 0.00 | 0.00 | 32 | 1021.9 |
| 20260510165620 | 75 | 107 | 6.0 | 9.0 | 0.00 | 0.00 | 0.00 | 32 | 1022.0 |
| 20260510165020 | 76 | 78 | 6.0 | 11.0 | 0.00 | 0.00 | 0.00 | 32 | 1022.0 |
| 20260510164419 | 75 | 118 | 4.0 | 11.0 | 0.00 | 0.00 | 0.00 | 37 | 1022.1 |
| 20260510163820 | 75 | 101 | 1.0 | 7.0 | 0.00 | 0.00 | 0.00 | 38 | 1022.1 |
| 20260510163219 | 74 | 0 | 1.0 | 7.0 | 0.00 | 0.00 | 0.00 | 38 | 1022.1 |
| 20260510162620 | 73 | 98 | 1.0 | 9.0 | 0.00 | 0.00 | 0.00 | 40 | 1022.1 |
| 20260510162020 | 73 | 68 | 4.0 | 9.0 | 0.00 | 0.00 | 0.00 | 43 | 1022.3 |
| 20260510161420 | 73 | 72 | 0.0 | 8.0 | 0.00 | 0.00 | 0.00 | 42 | 1022.3 |
| 20260510160844 | 73 | 114 | 3.0 | 8.0 | 0.00 | 0.00 | 0.00 | 42 | 1022.3 |
| 20260510160219 | 72 | 99 | 2.0 | 8.0 | 0.00 | 0.00 | 0.00 | 47 | 1022.3 |
| 20260510155619 | 72 | 93 | 1.0 | 12.0 | 0.00 | 0.00 | 0.00 | 48 | 1022.4 |
| 20260510155020 | 71 | 174 | 3.0 | 10.0 | 0.00 | 0.00 | 0.00 | 49 | 1022.4 |
| 20260510154420 | 71 | 144 | 0.0 | 7.0 | 0.00 | 0.00 | 0.00 | 51 | 1022.4 |
| 20260510153819 | 70 | 171 | 3.0 | 6.0 | 0.00 | 0.00 | 0.00 | 54 | 1022.4 |
| 20260510153220 | 69 | 73 | 3.0 | 11.0 | 0.00 | 0.00 | 0.00 | 55 | 1022.2 |
| 20260510152620 | 69 | 85 | 0.0 | 7.0 | 0.00 | 0.00 | 0.00 | 56 | 1022.2 |
| 20260510152020 | 69 | 124 | 3.0 | 8.0 | 0.00 | 0.00 | 0.00 | 57 | 1022.3 |
| 20260510151420 | 69 | 119 | 2.0 | 8.0 | 0.00 | 0.00 | 0.00 | 57 | 1022.2 |
| 20260510150820 | 68 | 80 | 3.0 | 9.0 | 0.00 | 0.00 | 0.00 | 60 | 1022.3 |
| 20260510150219 | 68 | 84 | 3.0 | 7.0 | 0.00 | 0.00 | 0.00 | 62 | 1022.4 |
| 20260510145619 | 68 | 68 | 1.0 | 5.0 | 0.00 | 0.00 | 0.00 | 59 | 1022.4 |
| 20260510145032 | 67 | 182 | 0.0 | 5.0 | 0.00 | 0.00 | 0.00 | 57 | 1022.4 |
| 20260510144420 | 67 | 100 | 2.0 | 3.0 | 0.00 | 0.00 | 0.00 | 51 | 1022.4 |
| 20260510143820 | 67 | 123 | 0.0 | 3.0 | 0.00 | 0.00 | 0.00 | 49 | 1022.4 |
| 20260510143220 | 65 | 111 | 0.0 | 2.0 | 0.00 | 0.00 | 0.00 | 51 | 1022.6 |
| 20260510142619 | 65 | 99 | 0.0 | 3.0 | 0.00 | 0.00 | 0.00 | 51 | 1022.6 |
| 20260510142020 | 64 | 64 | 0.0 | 2.0 | 0.00 | 0.00 | 0.00 | 52 | 1022.7 |
| 20260510141420 | 64 | 77 | 0.0 | 2.0 | 0.00 | 0.00 | 0.00 | 53 | 1022.6 |
| 20260510140819 | 63 | 27 | 0.0 | 3.0 | 0.00 | 0.00 | 0.00 | 53 | 1022.6 |
| 20260510140219 | 62 | 256 | 0.0 | 3.0 | 0.00 | 0.00 | 0.00 | 54 | 1022.5 |
| 20260510135620 | 62 | 271 | 0.0 | 3.0 | 0.00 | 0.00 | 0.00 | 54 | 1022.4 |
| 20260510135032 | 62 | 308 | 0.0 | 4.0 | 0.00 | 0.00 | 0.00 | 54 | 1022.4 |
| 20260510134419 | 62 | 308 | 0.0 | 3.0 | 0.00 | 0.00 | 0.00 | 53 | 1022.4 |
| 20260510133819 | 61 | 0 | 0.0 | 0.0 | 0.00 | 0.00 | 0.00 | 54 | 1022.4 |
| 20260510133220 | 60 | 310 | 0.0 | 3.0 | 0.00 | 0.00 | 0.00 | 56 | 1022.4 |
| 20260510132632 | 59 | 324 | 2.0 | 4.0 | 0.00 | 0.00 | 0.00 | 57 | 1022.4 |
| 20260510132020 | 59 | 305 | 2.0 | 4.0 | 0.00 | 0.00 | 0.00 | 58 | 1022.3 |
| 20260510131432 | 57 | 284 | 0.0 | 4.0 | 0.00 | 0.00 | 0.00 | 60 | 1022.3 |
| 20260510130845 | 56 | 275 | 0.0 | 3.0 | 0.00 | 0.00 | 0.00 | 63 | 1022.3 |
| 20260510130219 | 54 | 280 | 0.0 | 5.0 | 0.00 | 0.00 | 0.00 | 65 | 1022.3 |
| 20260510125619 | 54 | 317 | 1.0 | 6.0 | 0.00 | 0.00 | 0.00 | 66 | 1022.1 |
| 20260510125020 | 54 | 309 | 2.0 | 5.0 | 0.00 | 0.00 | 0.00 | 65 | 1022.1 |
| 20260510124420 | 53 | 319 | 2.0 | 6.0 | 0.00 | 0.00 | 0.00 | 67 | 1022.0 |
| 20260510123820 | 52 | 308 | 2.0 | 5.0 | 0.00 | 0.00 | 0.00 | 68 | 1022.0 |
| 20260510123220 | 52 | 279 | 0.0 | 6.0 | 0.00 | 0.00 | 0.00 | 68 | 1022.0 |
| 20260510122619 | 51 | 256 | 2.0 | 3.0 | 0.00 | 0.00 | 0.00 | 68 | 1021.9 |
| 20260510122020 | 50 | 294 | 0.0 | 4.0 | 0.00 | 0.00 | 0.00 | 68 | 1021.8 |
| 20260510121419 | 49 | 287 | 2.0 | 6.0 | 0.00 | 0.00 | 0.00 | 71 | 1021.8 |
| 20260510120820 | 49 | 309 | 2.0 | 6.0 | 0.00 | 0.00 | 0.00 | 72 | 1021.8 |
| 20260510120220 | 49 | 285 | 2.0 | 4.0 | 0.00 | 0.00 | 0.00 | 74 | 1021.8 |
| 20260510115619 | 49 | 288 | 1.0 | 5.0 | 0.00 | 0.00 | 0.00 | 73 | 1021.6 |
| 20260510115020 | 48 | 312 | 2.0 | 6.0 | 0.00 | 0.00 | 0.00 | 74 | 1021.6 |
| 20260510114419 | 49 | 295 | 2.0 | 7.0 | 0.00 | 0.00 | 0.00 | 72 | 1021.5 |
| 20260510113819 | 48 | 294 | 4.0 | 7.0 | 0.00 | 0.00 | 0.00 | 72 | 1021.6 |
| 20260510113232 | 48 | 327 | 2.0 | 7.0 | 0.00 | 0.00 | 0.00 | 72 | 1021.6 |
| 20260510112632 | 48 | 324 | 2.0 | 6.0 | 0.00 | 0.00 | 0.00 | 72 | 1021.5 |
| 20260510112019 | 48 | 324 | 2.0 | 6.0 | 0.00 | 0.00 | 0.00 | 71 | 1021.7 |
| 20260510111419 | 48 | 315 | 3.0 | 6.0 | 0.00 | 0.00 | 0.00 | 69 | 1021.6 |
| 20260510110820 | 49 | 297 | 3.0 | 6.0 | 0.00 | 0.00 | 0.00 | 68 | 1021.6 |
| 20260510110220 | 49 | 281 | 3.0 | 8.0 | 0.00 | 0.00 | 0.00 | 67 | 1021.5 |
| 20260510105710 | 49 | 308 | 3.0 | 7.0 | 0.00 | 0.00 | 0.00 | 64 | 1021.5 |
| 20260510105020 | 49 | 276 | 3.0 | 7.0 | 0.00 | 0.00 | 0.00 | 63 | 1021.5 |
| 20260510104419 | 50 | 279 | 2.0 | 7.0 | 0.00 | 0.00 | 0.00 | 61 | 1021.5 |
| 20260510103820 | 50 | 307 | 2.0 | 7.0 | 0.00 | 0.00 | 0.00 | 62 | 1021.3 |
| 20260510103220 | 49 | 284 | 3.0 | 7.0 | 0.00 | 0.00 | 0.00 | 63 | 1021.3 |
| 20260510102620 | 48 | 326 | 3.0 | 5.0 | 0.00 | 0.00 | 0.00 | 70 | 1021.3 |
| 20260510102020 | 47 | 296 | 1.0 | 6.0 | 0.00 | 0.00 | 0.00 | 69 | 1021.3 |
| 20260510101420 | 47 | 263 | 2.0 | 5.0 | 0.00 | 0.00 | 0.00 | 65 | 1021.2 |
| 20260510100820 | 48 | 280 | 1.0 | 6.0 | 0.00 | 0.00 | 0.00 | 62 | 1021.2 |
| 20260510100219 | 48 | 284 | 2.0 | 7.0 | 0.00 | 0.00 | 0.00 | 62 | 1021.2 |
| 20260510095620 | 48 | 292 | 2.0 | 6.0 | 0.00 | 0.00 | 0.00 | 63 | 1021.2 |
| 20260510095019 | 48 | 302 | 2.0 | 6.0 | 0.00 | 0.00 | 0.00 | 64 | 1021.2 |
| 20260510094420 | 47 | 297 | 3.0 | 6.0 | 0.00 | 0.00 | 0.00 | 64 | 1021.1 |
| 20260510093819 | 47 | 290 | 2.0 | 6.0 | 0.00 | 0.00 | 0.00 | 67 | 1021.2 |
| 20260510093219 | 47 | 300 | 3.0 | 5.0 | 0.00 | 0.00 | 0.00 | 66 | 1021.1 |
| 20260510092620 | 47 | 300 | 2.0 | 4.0 | 0.00 | 0.00 | 0.00 | 64 | 1021.1 |
| 20260510092019 | 48 | 294 | 2.0 | 5.0 | 0.00 | 0.00 | 0.00 | 63 | 1021.1 |
| 20260510091420 | 48 | 294 | 2.0 | 6.0 | 0.00 | 0.00 | 0.00 | 59 | 1021.1 |
| 20260510090820 | 48 | 274 | 2.0 | 6.0 | 0.00 | 0.00 | 0.00 | 57 | 1021.0 |
| 20260510090232 | 48 | 264 | 2.0 | 5.0 | 0.00 | 0.00 | 0.00 | 57 | 1020.9 |
| 20260510085619 | 47 | 257 | 2.0 | 4.0 | 0.00 | 0.00 | 0.00 | 60 | 1020.9 |
| 20260510085020 | 47 | 266 | 2.0 | 5.0 | 0.00 | 0.00 | 0.00 | 61 | 1020.9 |
| 20260510084419 | 47 | 308 | 2.0 | 6.0 | 0.00 | 0.00 | 0.00 | 61 | 1021.0 |
| 20260510083819 | 46 | 298 | 3.0 | 6.0 | 0.00 | 0.00 | 0.00 | 64 | 1021.1 |
| 20260510083219 | 47 | 335 | 2.0 | 5.0 | 0.00 | 0.00 | 0.00 | 60 | 1021.1 |
| 20260510082645 | 48 | 272 | 2.0 | 4.0 | 0.00 | 0.00 | 0.00 | 61 | 1021.1 |
| 20260510082019 | 48 | 253 | 0.0 | 6.0 | 0.00 | 0.00 | 0.00 | 59 | 1020.9 |
| 20260510081419 | 48 | 265 | 2.0 | 5.0 | 0.00 | 0.00 | 0.00 | 61 | 1020.9 |
| 20260510080820 | 47 | 297 | 1.0 | 3.0 | 0.00 | 0.00 | 0.00 | 62 | 1020.9 |
| 20260510080220 | 47 | 307 | 1.0 | 3.0 | 0.00 | 0.00 | 0.00 | 61 | 1020.9 |
| 20260510075619 | 47 | 298 | 2.0 | 3.0 | 0.00 | 0.00 | 0.00 | 62 | 1020.9 |
| 20260510075020 | 47 | 248 | 1.0 | 4.0 | 0.00 | 0.00 | 0.00 | 63 | 1020.9 |
| 20260510074419 | 48 | 278 | 2.0 | 3.0 | 0.00 | 0.00 | 0.00 | 64 | 1020.8 |
| 20260510073819 | 47 | 274 | 1.0 | 4.0 | 0.00 | 0.00 | 0.00 | 68 | 1020.9 |
| 20260510073219 | 47 | 271 | 2.0 | 3.0 | 0.00 | 0.00 | 0.00 | 69 | 1020.9 |
| 20260510072619 | 48 | 284 | 1.0 | 3.0 | 0.00 | 0.00 | 0.00 | 69 | 1020.9 |
| 20260510072020 | 47 | 278 | 1.0 | 3.0 | 0.00 | 0.00 | 0.00 | 74 | 1020.9 |
| 20260510071419 | 47 | 287 | 1.0 | 3.0 | 0.00 | 0.00 | 0.00 | 74 | 1020.8 |
| 20260510070821 | 47 | 286 | 2.0 | 3.0 | 0.00 | 0.00 | 0.00 | 76 | 1020.8 |
| 20260510070219 | 47 | 260 | 1.0 | 3.0 | 0.00 | 0.00 | 0.00 | 74 | 1020.8 |
| 20260510065619 | 48 | 233 | 1.0 | 3.0 | 0.00 | 0.00 | 0.00 | 74 | 1020.8 |
| 20260510065020 | 48 | 336 | 0.0 | 3.0 | 0.00 | 0.00 | 0.00 | 71 | 1020.6 |
| 20260510064420 | 48 | 350 | 1.0 | 4.0 | 0.00 | 0.00 | 0.00 | 72 | 1020.6 |
| 20260510063820 | 47 | 4 | 0.0 | 4.0 | 0.00 | 0.00 | 0.00 | 74 | 1020.8 |
| 20260510063219 | 47 | 335 | 0.0 | 2.0 | 0.00 | 0.00 | 0.00 | 74 | 1020.9 |
| 20260510062620 | 48 | 192 | 0.0 | 2.0 | 0.00 | 0.00 | 0.00 | 71 | 1020.8 |
| 20260510062019 | 49 | 133 | 0.0 | 3.0 | 0.00 | 0.00 | 0.00 | 69 | 1020.8 |
| 20260510061444 | 50 | 73 | 0.0 | 3.0 | 0.00 | 0.00 | 0.00 | 67 | 1020.6 |
| 20260510060820 | 49 | 235 | 0.0 | 2.0 | 0.00 | 0.00 | 0.00 | 65 | 1020.6 |
| 20260510060219 | 51 | 0 | 2.0 | 2.0 | 0.00 | 0.00 | 0.00 | 62 | 1020.5 |
| 20260510055619 | 51 | 333 | 0.0 | 0.0 | 0.00 | 0.00 | 0.00 | 59 | 1020.6 |
| 20260510055020 | 52 | 333 | 0.0 | 3.0 | 0.00 | 0.00 | 0.00 | 56 | 1020.6 |
| 20260510054419 | 53 | 327 | 1.0 | 3.0 | 0.00 | 0.00 | 0.00 | 52 | 1020.5 |
| 20260510053819 | 52 | 244 | 0.0 | 2.0 | 0.00 | 0.00 | 0.00 | 49 | 1020.6 |
| 20260510053219 | 53 | 327 | 0.0 | 2.0 | 0.00 | 0.00 | 0.00 | 47 | 1020.6 |
| 20260510052619 | 52 | 0 | 0.0 | 2.0 | 0.00 | 0.00 | 0.00 | 48 | 1020.6 |
| 20260510052019 | 52 | 307 | 0.0 | 0.0 | 0.00 | 0.00 | 0.00 | 49 | 1020.6 |
| 20260510051420 | 53 | 307 | 0.0 | 1.0 | 0.00 | 0.00 | 0.00 | 48 | 1020.7 |
| 20260510050819 | 53 | 306 | 1.0 | 4.0 | 0.00 | 0.00 | 0.00 | 47 | 1020.7 |
| 20260510050219 | 52 | 268 | 0.0 | 3.0 | 0.00 | 0.00 | 0.00 | 47 | 1020.7 |
| 20260510045633 | 52 | 248 | 0.0 | 3.0 | 0.00 | 0.00 | 0.00 | 47 | 1020.6 |
| 20260510045032 | 53 | 272 | 0.0 | 2.0 | 0.00 | 0.00 | 0.00 | 47 | 1020.7 |
| 20260510044420 | 53 | 351 | 0.0 | 3.0 | 0.00 | 0.00 | 0.00 | 42 | 1020.7 |
| 20260510043820 | 53 | 0 | 2.0 | 4.0 | 0.00 | 0.00 | 0.00 | 44 | 1020.7 |
| 20260510043232 | 54 | 141 | 0.0 | 2.0 | 0.00 | 0.00 | 0.00 | 42 | 1020.7 |
| 20260510042619 | 55 | 185 | 0.0 | 0.0 | 0.00 | 0.00 | 0.00 | 42 | 1020.8 |
| 20260510042020 | 56 | 207 | 0.0 | 4.0 | 0.00 | 0.00 | 0.00 | 39 | 1020.7 |
| 20260510041419 | 56 | 253 | 0.0 | 3.0 | 0.00 | 0.00 | 0.00 | 30 | 1020.7 |
| 20260510040820 | 57 | 304 | 0.0 | 4.0 | 0.00 | 0.00 | 0.00 | 32 | 1020.5 |
| 20260510040219 | 56 | 213 | 0.0 | 2.0 | 0.00 | 0.00 | 0.00 | 33 | 1020.5 |
| 20260510035619 | 55 | 223 | 0.0 | 0.0 | 0.00 | 0.00 | 0.00 | 37 | 1020.4 |
| 20260510035019 | 57 | 220 | 0.0 | 1.0 | 0.00 | 0.00 | 0.00 | 33 | 1020.5 |
| 20260510034432 | 59 | 220 | 0.0 | 0.0 | 0.00 | 0.00 | 0.00 | 29 | 1020.4 |
| 20260510033819 | 60 | 220 | 0.0 | 3.0 | 0.00 | 0.00 | 0.00 | 27 | 1020.4 |
| 20260510033220 | 61 | 297 | 2.0 | 6.0 | 0.00 | 0.00 | 0.00 | 28 | 1020.3 |
| 20260510032632 | 61 | 273 | 2.0 | 6.0 | 0.00 | 0.00 | 0.00 | 27 | 1020.3 |
| 20260510032019 | 62 | 277 | 2.0 | 7.0 | 0.00 | 0.00 | 0.00 | 24 | 1020.3 |
| 20260510031420 | 62 | 279 | 2.0 | 7.0 | 0.00 | 0.00 | 0.00 | 27 | 1020.3 |
| 20260510030819 | 63 | 317 | 3.0 | 7.0 | 0.00 | 0.00 | 0.00 | 25 | 1020.1 |
| 20260510030220 | 64 | 297 | 3.0 | 9.0 | 0.00 | 0.00 | 0.00 | 28 | 1020.1 |
| 20260510025620 | 64 | 305 | 2.0 | 6.0 | 0.00 | 0.00 | 0.00 | 31 | 1020.1 |
| 20260510025020 | 66 | 284 | 2.0 | 7.0 | 0.00 | 0.00 | 0.00 | 31 | 1020.1 |
| 20260510024421 | 66 | 324 | 2.0 | 8.0 | 0.00 | 0.00 | 0.00 | 30 | 1020.1 |
| 20260510023819 | 67 | 305 | 3.0 | 9.0 | 0.00 | 0.00 | 0.00 | 31 | 1020.0 |
| 20260510023219 | 68 | 338 | 3.0 | 11.0 | 0.00 | 0.00 | 0.00 | 30 | 1019.8 |
| 20260510022619 | 68 | 301 | 3.0 | 10.0 | 0.00 | 0.00 | 0.00 | 28 | 1019.8 |
| 20260510022020 | 68 | 329 | 3.0 | 11.0 | 0.00 | 0.00 | 0.00 | 22 | 1019.8 |
| 20260510021420 | 68 | 313 | 2.0 | 10.0 | 0.00 | 0.00 | 0.00 | 21 | 1019.8 |
| 20260510020819 | 67 | 316 | 3.0 | 11.0 | 0.00 | 0.00 | 0.00 | 18 | 1019.6 |
| 20260510020219 | 67 | 317 | 2.0 | 7.0 | 0.00 | 0.00 | 0.00 | 17 | 1019.6 |
| 20260510015620 | 67 | 343 | 3.0 | 8.0 | 0.00 | 0.00 | 0.00 | 18 | 1019.3 |
| 20260510015045 | 67 | 322 | 3.0 | 8.0 | 0.00 | 0.00 | 0.00 | 19 | 1019.3 |
| 20260510014419 | 66 | 321 | 2.0 | 6.0 | 0.00 | 0.00 | 0.00 | 19 | 1019.2 |
| 20260510013819 | 67 | 319 | 2.0 | 6.0 | 0.00 | 0.00 | 0.00 | 21 | 1019.2 |
| 20260510013219 | 68 | 316 | 2.0 | 7.0 | 0.00 | 0.00 | 0.00 | 18 | 1019.0 |
| 20260510012632 | 67 | 327 | 2.0 | 5.0 | 0.00 | 0.00 | 0.00 | 21 | 1018.9 |
| 20260510012032 | 67 | 306 | 2.0 | 7.0 | 0.00 | 0.00 | 0.00 | 22 | 1018.9 |
| 20260510011445 | 69 | 303 | 3.0 | 7.0 | 0.00 | 0.00 | 0.00 | 20 | 1018.7 |
| 20260510010820 | 71 | 311 | 2.0 | 6.0 | 0.00 | 0.00 | 0.00 | 17 | 1018.7 |
| 20260510010220 | 73 | 289 | 2.0 | 9.0 | 0.00 | 0.00 | 0.00 | 17 | 1018.6 |
| 20260510005619 | 74 | 285 | 3.0 | 12.0 | 0.00 | 0.00 | 0.00 | 16 | 1018.6 |
| 20260510005019 | 75 | 273 | 2.0 | 8.0 | 0.00 | 0.00 | 0.00 | 15 | 1018.5 |
| 20260510004420 | 76 | 323 | 2.0 | 10.0 | 0.00 | 0.00 | 0.00 | 14 | 1018.5 |
| 20260510003845 | 76 | 320 | 3.0 | 8.0 | 0.00 | 0.00 | 0.00 | 14 | 1018.4 |
| 20260510003220 | 76 | 311 | 4.0 | 14.0 | 0.00 | 0.00 | 0.00 | 15 | 1018.4 |
| 20260510002620 | 76 | 320 | 5.0 | 13.0 | 0.00 | 0.00 | 0.00 | 15 | 1018.2 |
| 20260510002019 | 77 | 321 | 5.0 | 14.0 | 0.00 | 0.00 | 0.00 | 15 | 1018.2 |
| 20260510001420 | 78 | 302 | 3.0 | 13.0 | 0.00 | 0.00 | 0.00 | 16 | 1018.2 |
| 20260510000832 | 79 | 283 | 4.0 | 13.0 | 0.00 | 0.00 | 0.00 | 16 | 1018.0 |
| 20260510000220 | 79 | 330 | 2.0 | 13.0 | 0.00 | 0.00 | 0.00 | 15 | 1018.0 |
| 20260509235619 | 80 | 301 | 4.0 | 12.0 | 0.00 | 0.00 | 0.00 | 16 | 1018.0 |
| 20260509235019 | 80 | 297 | 2.0 | 11.0 | 0.00 | 0.00 | 0.00 | 17 | 1018.0 |
| 20260509234420 | 81 | 285 | 3.0 | 10.0 | 0.00 | 0.00 | 0.00 | 17 | 1018.0 |
| 20260509233819 | 81 | 314 | 3.0 | 11.0 | 0.00 | 0.00 | 0.00 | 16 | 1017.9 |
| 20260509233232 | 82 | 345 | 2.0 | 9.0 | 0.00 | 0.00 | 0.00 | 16 | 1017.9 |
| 20260509232632 | 81 | 334 | 2.0 | 12.0 | 0.00 | 0.00 | 0.00 | 18 | 1017.9 |
| 20260509232019 | 80 | 284 | 3.0 | 12.0 | 0.00 | 0.00 | 0.00 | 17 | 1017.9 |
| 20260509231419 | 79 | 313 | 2.0 | 12.0 | 0.00 | 0.00 | 0.00 | 18 | 1017.9 |
| 20260509230819 | 80 | 302 | 4.0 | 12.0 | 0.00 | 0.00 | 0.00 | 19 | 1017.9 |
| 20260509230219 | 80 | 259 | 4.0 | 10.0 | 0.00 | 0.00 | 0.00 | 18 | 1017.9 |
| 20260509225619 | 79 | 258 | 2.0 | 14.0 | 0.00 | 0.00 | 0.00 | 19 | 1017.9 |
| 20260509225020 | 80 | 307 | 4.0 | 14.0 | 0.00 | 0.00 | 0.00 | 19 | 1017.8 |
| 20260509224431 | 79 | 290 | 4.0 | 12.0 | 0.00 | 0.00 | 0.00 | 20 | 1017.8 |
| 20260509223819 | 81 | 290 | 6.0 | 12.0 | 0.00 | 0.00 | 0.00 | 20 | 1017.8 |
| 20260509223220 | 82 | 279 | 2.0 | 16.0 | 0.00 | 0.00 | 0.00 | 21 | 1017.8 |
| 20260509222619 | 82 | 300 | 5.0 | 14.0 | 0.00 | 0.00 | 0.00 | 21 | 1017.8 |
| 20260509222044 | 81 | 0 | 3.0 | 16.0 | 0.00 | 0.00 | 0.00 | 21 | 1017.8 |
| 20260509221420 | 81 | 298 | 4.0 | 13.0 | 0.00 | 0.00 | 0.00 | 22 | 1017.8 |
| 20260509220832 | 81 | 225 | 4.0 | 13.0 | 0.00 | 0.00 | 0.00 | 21 | 1017.8 |
| 20260509220220 | 82 | 254 | 3.0 | 13.0 | 0.00 | 0.00 | 0.00 | 23 | 1017.8 |
| 20260509215620 | 82 | 281 | 2.0 | 9.0 | 0.00 | 0.00 | 0.00 | 22 | 1017.8 |
| 20260509215019 | 81 | 30 | 0.0 | 8.0 | 0.00 | 0.00 | 0.00 | 18 | 1017.9 |
| 20260509214419 | 79 | 7 | 2.0 | 13.0 | 0.00 | 0.00 | 0.00 | 19 | 1017.9 |
| 20260509213819 | 79 | 37 | 2.0 | 9.0 | 0.00 | 0.00 | 0.00 | 19 | 1018.0 |
| 20260509213219 | 78 | 336 | 0.0 | 10.0 | 0.00 | 0.00 | 0.00 | 18 | 1018.1 |
| 20260509212619 | 78 | 316 | 2.0 | 14.0 | 0.00 | 0.00 | 0.00 | 20 | 1018.0 |
| 20260509212020 | 79 | 331 | 4.0 | 17.0 | 0.00 | 0.00 | 0.00 | 20 | 1018.0 |
| 20260509211419 | 79 | 322 | 3.0 | 13.0 | 0.00 | 0.00 | 0.00 | 18 | 1018.2 |
| 20260509210819 | 80 | 351 | 1.0 | 10.0 | 0.00 | 0.00 | 0.00 | 18 | 1018.3 |
| 20260509210219 | 80 | 341 | 3.0 | 5.0 | 0.00 | 0.00 | 0.00 | 19 | 1018.3 |
| 20260509205619 | 79 | 329 | 0.0 | 14.0 | 0.00 | 0.00 | 0.00 | 22 | 1018.3 |
| 20260509205019 | 78 | 340 | 3.0 | 17.0 | 0.00 | 0.00 | 0.00 | 24 | 1018.5 |
| 20260509204419 | 78 | 339 | 4.0 | 13.0 | 0.00 | 0.00 | 0.00 | 25 | 1018.5 |
| 20260509203819 | 79 | 318 | 1.0 | 9.0 | 0.00 | 0.00 | 0.00 | 25 | 1018.6 |
| 20260509203219 | 79 | 272 | 4.0 | 12.0 | 0.00 | 0.00 | 0.00 | 21 | 1018.6 |
| 20260509202619 | 79 | 250 | 4.0 | 7.0 | 0.00 | 0.00 | 0.00 | 20 | 1018.6 |
| 20260509202019 | 79 | 262 | 2.0 | 6.0 | 0.00 | 0.00 | 0.00 | 20 | 1018.6 |
| 20260509201419 | 79 | 250 | 0.0 | 7.0 | 0.00 | 0.00 | 0.00 | 20 | 1018.7 |
| 20260509200820 | 80 | 281 | 2.0 | 10.0 | 0.00 | 0.00 | 0.00 | 21 | 1018.9 |
| 20260509200219 | 82 | 310 | 0.0 | 11.0 | 0.00 | 0.00 | 0.00 | 18 | 1018.9 |
| 20260509195619 | 83 | 201 | 0.0 | 15.0 | 0.00 | 0.00 | 0.00 | 18 | 1018.9 |
| 20260509195019 | 82 | 252 | 7.0 | 14.0 | 0.00 | 0.00 | 0.00 | 21 | 1018.9 |
| 20260509194419 | 81 | 283 | 0.0 | 12.0 | 0.00 | 0.00 | 0.00 | 21 | 1018.9 |
| 20260509193819 | 80 | 253 | 0.0 | 6.0 | 0.00 | 0.00 | 0.00 | 20 | 1018.9 |
| 20260509193232 | 80 | 315 | 0.0 | 3.0 | 0.00 | 0.00 | 0.00 | 21 | 1019.0 |
| 20260509192619 | 80 | 275 | 0.0 | 8.0 | 0.00 | 0.00 | 0.00 | 19 | 1019.0 |